Regional Weather Roundup
Issued by NWS Albany, NY

Home | Current Version | Previous Version | Text Only | Print | Product List | Glossary On
Versions: 1 2 3 4 5 6 7 8 9 10 11 12 13 14 15 16 17 18 19 20 21 22 23 24 25 26 27 28 29 30 31 32 33 34 35 36 37 38 39 40 41 42 43 44 45 46 47 48 49 50
000
ASUS41 KALY 161110
RWRALY

NEW YORK STATE HOURLY WEATHER ROUNDUP
NATIONAL WEATHER SERVICE ALBANY NY
700 AM EDT TUE SEP 16 2014

NOTE: "FAIR" INDICATES FEW OR NO CLOUDS BELOW 12,000 FEET WITH NO
SIGNIFICANT WEATHER AND/OR NO OBSTRUCTIONS TO VISIBILITY.

NYZ032-033-038>043-046>054-057>066-NYZ062>081-161200-
EAST


CITY           SKY/WX    TMP DP  RH WIND       PRES   REMARKS
ALBANY         LGT RAIN  53  51  93 E3        30.03S
GLENS FALLS    LGT RAIN  51  49  92 CALM      30.02F
POUGHKEEPSIE   LGT RAIN  56  53  90 NW5       30.01R
NEWBURGH       DRIZZLE   54  52  94 N8        30.02S
MONTGOMERY     LGT RAIN  54  51  90 CALM      30.01S
WHITE PLAINS   MOCLDY    56  53  90 CALM      30.00F
ISLIP          MOCLDY    55  51  86 E3        29.99F
NEW YORK CITY  MOCLDY    63  54  72 CALM      30.00S
CENTRAL PARK   MOCLDY    62  53  72 CALM      30.02S
$$

NYZ005>009-017-018-044>046-055-056-161200-
CENTRAL


CITY           SKY/WX    TMP DP  RH WIND       PRES   REMARKS
FULTON         RAIN      54  52  93 SW6       30.02R FOG
SYRACUSE       LGT RAIN  56  53  90 W5        30.02R
ROME           LGT RAIN  52  51  97 CALM      30.03R FOG
ELMIRA         CLOUDY    54  54 100 W6        30.03R
BINGHAMTON     FOG       51  51 100 W5        30.02R VSB 1/2
MONTICELLO     CLOUDY    52  50  93 CALM      30.03F
$$

NYZ026>034-041>043-161200-
NORTH


CITY           SKY/WX    TMP DP  RH WIND       PRES   REMARKS
WATERTOWN      CLOUDY    55  50  83 CALM      30.01R
FORT DRUM      NOT AVBL
MASSENA        CLOUDY    52  52 100 SW5       30.01R
SARANAC LAKE   LGT RAIN  48  48 100 S3        29.99R
PLATTSBURGH    LGT RAIN  51  51 100 SW3       30.00R
$$

NYZ001>004-010>016-019>021-161200-
WEST


CITY           SKY/WX    TMP DP  RH WIND       PRES   REMARKS
NIAGARA FALLS  MOCLDY    54  51  90 W6        30.07R
BUFFALO        CLOUDY    54  52  93 W6        30.06R
DUNKIRK        CLOUDY    56  51  84 NW8       30.08R
JAMESTOWN      CLOUDY    50  46  87 W5        30.08R
WELLSVILLE     CLOUDY    49  46  90 NW9       30.07R
ROCHESTER      CLOUDY    54  52  93 W7        30.04R
PENN YAN       CLOUDY    54  51  90 W6        30.04R
$$

             KEY
       WCI = WIND CHILL INDEX
       VSB = VISIBILITY
       HX  = HEAT INDEX
$$



USA.gov is the U.S. government's official web portal to all federal, state and local government web resources and services.